Вернуться в каталог

ATLAS 5 CENTAUR R/B

АктивенHEO
NORAD 27853·ROCKET BODY·🇺🇸 United States

Запущен Jul 17, 2003 с Cape Canaveral Space Force Station

Loading…

Ближайшие Пролёты (ближайшие 24 часа)

TLE

СвежийSource: Space-Track

Эпоха: Sep 11, 2026, 14:48 UTC

1 27853U 03033B   26254.61735369 -.00000168  00000-0  00000-0 0  9999
2 27853  18.5213  16.6992 6011057 324.2759   7.5027  2.11268960178598

Отслеживайте ATLAS 5 CENTAUR R/B в реальном времени с AllMySat

Download on the App Store